BAW8TD EGLL-EKCH

Flight info

Callsign BAW8TD
Flight time 1h 24m
Altitude 37000
Route BPK Q295 SOMVA DCT MAVAS DCT AGISU DCT TALSA P729 TUDLO
Aircraft A320/M-SDE3FGHIRWY/LB1

Departure

Time 2026-05-07 11:28
Airport London Heathrow Airport (EGLL)

Arrival

Time 2026-05-07 12:52
Airport Copenhagen Kastrup Airport (EKCH)
Time Latitude Longitude Altitude Speed Heading
2026-05-07 10:57 51.46993 -0.48605 87 ft 0 kts 269°
2026-05-07 11:20 51.46993 -0.48569 89 ft 4 kts 269°
2026-05-07 11:21 51.46994 -0.48535 89 ft 4 kts 265°
2026-05-07 11:21 51.46999 -0.48493 88 ft 4 kts 236°
2026-05-07 11:21 51.47017 -0.48473 90 ft 3 kts 180°
2026-05-07 11:21 51.47023 -0.48473 89 ft 0 kts 180°
2026-05-07 11:24 51.47022 -0.48473 87 ft 1 kts 180°
2026-05-07 11:24 51.46999 -0.48473 87 ft 5 kts 180°
2026-05-07 11:25 51.46956 -0.48473 87 ft 7 kts 180°
2026-05-07 11:25 51.46900 -0.48473 87 ft 9 kts 179°
2026-05-07 11:25 51.46835 -0.48472 89 ft 10 kts 179°
2026-05-07 11:25 51.46783 -0.48472 87 ft 7 kts 179°
2026-05-07 11:26 51.46731 -0.48471 87 ft 8 kts 180°
2026-05-07 11:26 51.46677 -0.48471 87 ft 9 kts 180°
2026-05-07 11:26 51.46610 -0.48470 87 ft 10 kts 180°
2026-05-07 11:26 51.46539 -0.48470 89 ft 10 kts 180°
2026-05-07 11:27 51.46487 -0.48457 91 ft 5 kts 146°
2026-05-07 11:27 51.46478 -0.48402 89 ft 6 kts 89°
2026-05-07 11:27 51.46479 -0.48248 89 ft 37 kts 90°
2026-05-07 11:27 51.46481 -0.47451 86 ft 103 kts 89°
2026-05-07 11:28 51.46486 -0.46026 88 ft 150 kts 90°
2026-05-07 11:28 51.46492 -0.44222 447 ft 163 kts 89°
2026-05-07 11:28 51.46519 -0.42408 1185 ft 163 kts 83°
2026-05-07 11:28 51.46875 -0.40637 1613 ft 177 kts 53°
2026-05-07 11:29 51.47721 -0.39059 1948 ft 197 kts 46°
2026-05-07 11:29 51.48676 -0.37285 2316 ft 223 kts 49°
2026-05-07 11:29 51.49723 -0.35274 2784 ft 245 kts 49°
2026-05-07 11:29 51.50832 -0.33128 3631 ft 254 kts 49°
2026-05-07 11:30 51.51953 -0.30900 4564 ft 259 kts 54°
2026-05-07 11:30 51.52706 -0.28235 5433 ft 265 kts 69°
2026-05-07 11:30 51.53296 -0.25411 6375 ft 269 kts 69°
2026-05-07 11:30 51.54131 -0.22713 7199 ft 272 kts 51°
2026-05-07 11:31 51.55493 -0.20601 8018 ft 274 kts 32°
2026-05-07 11:31 51.57225 -0.19338 8832 ft 276 kts 19°
2026-05-07 11:31 51.59035 -0.18224 9632 ft 281 kts 18°
2026-05-07 11:31 51.60915 -0.17268 10340 ft 288 kts 16°
2026-05-07 11:32 51.64655 -0.14047 10896 ft 329 kts 50°
2026-05-07 11:32 51.65932 -0.10938 11510 ft 336 kts 58°
2026-05-07 11:32 51.67161 -0.07713 12187 ft 340 kts 58°
2026-05-07 11:33 51.68401 -0.04436 12863 ft 344 kts 58°
2026-05-07 11:33 51.69651 -0.01120 13529 ft 348 kts 58°
2026-05-07 11:33 51.70922 0.02240 14160 ft 353 kts 58°
2026-05-07 11:33 51.72192 0.05587 14736 ft 357 kts 58°
2026-05-07 11:34 51.73491 0.09019 15296 ft 360 kts 58°
2026-05-07 11:34 51.74801 0.12498 15883 ft 364 kts 58°
2026-05-07 11:34 51.76119 0.16019 16448 ft 368 kts 60°
2026-05-07 11:34 51.77201 0.19781 17016 ft 372 kts 71°
2026-05-07 11:35 51.77829 0.23843 17596 ft 375 kts 82°
2026-05-07 11:35 51.78165 0.28042 18177 ft 378 kts 83°
2026-05-07 11:35 51.78502 0.32272 18716 ft 381 kts 83°
2026-05-07 11:35 51.78845 0.36535 19242 ft 384 kts 83°
2026-05-07 11:36 51.79193 0.40844 19783 ft 387 kts 83°
2026-05-07 11:36 51.79541 0.45171 20313 ft 390 kts 83°
2026-05-07 11:36 51.79888 0.49533 20831 ft 393 kts 83°
2026-05-07 11:36 51.80229 0.53874 21327 ft 396 kts 83°
2026-05-07 11:37 51.80575 0.58298 21808 ft 398 kts 83°
2026-05-07 11:37 51.80938 0.62747 22289 ft 401 kts 81°
2026-05-07 11:37 51.81641 0.67122 22768 ft 404 kts 70°
2026-05-07 11:37 51.82715 0.71341 23241 ft 407 kts 67°
2026-05-07 11:38 51.83821 0.75573 23704 ft 410 kts 68°
2026-05-07 11:38 51.84930 0.79845 24107 ft 413 kts 68°
2026-05-07 11:38 51.86038 0.84138 24510 ft 415 kts 68°
2026-05-07 11:38 51.87148 0.88456 24911 ft 417 kts 68°
2026-05-07 11:39 51.88262 0.92806 25315 ft 419 kts 68°
2026-05-07 11:39 51.89381 0.97172 25719 ft 421 kts 68°
2026-05-07 11:39 51.90506 1.01554 26115 ft 423 kts 68°
2026-05-07 11:39 51.91639 1.05972 26519 ft 425 kts 68°
2026-05-07 11:40 51.92774 1.10403 26893 ft 427 kts 68°
2026-05-07 11:40 51.93909 1.14851 27275 ft 428 kts 68°
2026-05-07 11:40 51.95047 1.19332 27667 ft 430 kts 68°
2026-05-07 11:40 51.96185 1.23826 28059 ft 432 kts 68°
2026-05-07 11:41 51.97328 1.28345 28457 ft 434 kts 68°
2026-05-07 11:41 51.98457 1.32815 28846 ft 435 kts 68°
2026-05-07 11:41 51.99607 1.37368 29249 ft 437 kts 68°
2026-05-07 11:41 52.00758 1.41944 29647 ft 438 kts 68°
2026-05-07 11:42 52.01910 1.46529 30024 ft 440 kts 68°
2026-05-07 11:42 52.03067 1.51139 30371 ft 441 kts 68°
2026-05-07 11:42 52.04225 1.55759 30755 ft 441 kts 68°
2026-05-07 11:42 52.05379 1.60364 31198 ft 440 kts 68°
2026-05-07 11:43 52.06528 1.64967 31622 ft 439 kts 69°
2026-05-07 11:43 52.07671 1.69566 32068 ft 438 kts 69°
2026-05-07 11:43 52.08808 1.74147 32516 ft 436 kts 69°
2026-05-07 11:43 52.09939 1.78714 32955 ft 435 kts 69°
2026-05-07 11:44 52.11071 1.83286 33379 ft 435 kts 69°
2026-05-07 11:44 52.12201 1.87850 33811 ft 434 kts 69°
2026-05-07 11:44 52.13325 1.92410 34212 ft 433 kts 69°
2026-05-07 11:44 52.14446 1.96961 34544 ft 433 kts 69°
2026-05-07 11:45 52.15565 2.01522 34823 ft 434 kts 69°
2026-05-07 11:45 52.16669 2.06034 35095 ft 435 kts 69°
2026-05-07 11:45 52.17787 2.10614 35372 ft 436 kts 69°
2026-05-07 11:45 52.18906 2.15206 35621 ft 437 kts 69°
2026-05-07 11:46 52.20026 2.19815 35872 ft 438 kts 69°
2026-05-07 11:46 52.21145 2.24435 36121 ft 439 kts 69°
2026-05-07 11:46 52.22262 2.29069 36386 ft 439 kts 69°
2026-05-07 11:46 52.23379 2.33711 36628 ft 440 kts 69°
2026-05-07 11:47 52.24499 2.38360 36885 ft 440 kts 69°
2026-05-07 11:47 52.25618 2.43008 37073 ft 441 kts 69°
2026-05-07 11:47 52.26745 2.47697 37112 ft 445 kts 69°
2026-05-07 11:48 52.29000 2.57128 37111 ft 446 kts 69°
2026-05-07 11:48 52.31126 2.66644 37114 ft 446 kts 75°
2026-05-07 11:49 52.32845 2.76390 37114 ft 446 kts 74°
2026-05-07 11:49 52.34567 2.86129 37114 ft 446 kts 75°
2026-05-07 11:50 52.36261 2.95832 37116 ft 446 kts 75°
2026-05-07 11:50 52.37953 3.05618 37118 ft 447 kts 75°
2026-05-07 11:51 52.39870 3.15270 37120 ft 447 kts 65°
2026-05-07 11:51 52.43246 3.23788 37114 ft 447 kts 52°
2026-05-07 11:52 52.47060 3.31847 37114 ft 447 kts 52°
2026-05-07 11:52 52.50862 3.39931 37115 ft 448 kts 52°
2026-05-07 11:53 52.54669 3.48040 37118 ft 448 kts 52°
2026-05-07 11:53 52.58473 3.56145 37124 ft 448 kts 53°
2026-05-07 11:54 52.62266 3.64264 37124 ft 448 kts 53°
2026-05-07 11:54 52.66056 3.72408 37124 ft 448 kts 53°
2026-05-07 11:55 52.69194 3.79178 37131 ft 447 kts 53°
2026-05-07 11:55 52.72966 3.87339 37130 ft 447 kts 53°
2026-05-07 11:56 52.77340 3.96840 37128 ft 447 kts 53°
2026-05-07 11:56 52.80491 4.03690 37125 ft 447 kts 53°
2026-05-07 11:57 52.84249 4.11879 37126 ft 446 kts 53°
2026-05-07 11:57 52.87964 4.20024 37127 ft 446 kts 53°
2026-05-07 11:58 52.91698 4.28240 37129 ft 446 kts 53°
2026-05-07 11:58 52.95426 4.36454 37128 ft 446 kts 53°
2026-05-07 11:59 52.99143 4.44671 37130 ft 445 kts 53°
2026-05-07 11:59 53.02853 4.52905 37129 ft 445 kts 53°
2026-05-07 12:00 53.06556 4.61140 37128 ft 445 kts 53°
2026-05-07 12:00 53.10254 4.69379 37128 ft 444 kts 53°
2026-05-07 12:01 53.13940 4.77636 37132 ft 444 kts 53°
2026-05-07 12:01 53.17593 4.85857 37133 ft 444 kts 53°
2026-05-07 12:02 53.21266 4.94138 37131 ft 444 kts 53°
2026-05-07 12:02 53.24932 5.02433 37127 ft 444 kts 53°
2026-05-07 12:03 53.28591 5.10739 37124 ft 444 kts 54°
2026-05-07 12:03 53.32241 5.19056 37127 ft 443 kts 54°
2026-05-07 12:04 53.35884 5.27380 37124 ft 443 kts 54°
2026-05-07 12:04 53.39493 5.35657 37117 ft 443 kts 54°
2026-05-07 12:05 53.43125 5.43998 37118 ft 443 kts 54°
2026-05-07 12:05 53.46744 5.52351 37116 ft 443 kts 54°
2026-05-07 12:06 53.50362 5.60717 37119 ft 443 kts 54°
2026-05-07 12:06 53.53978 5.69108 37123 ft 443 kts 54°
2026-05-07 12:07 53.57577 5.77514 37128 ft 443 kts 54°
2026-05-07 12:07 53.61168 5.85937 37130 ft 443 kts 54°
2026-05-07 12:08 53.64764 5.94375 37125 ft 443 kts 54°
2026-05-07 12:08 53.68353 6.02811 37123 ft 443 kts 54°
2026-05-07 12:09 53.71933 6.11264 37119 ft 443 kts 54°
2026-05-07 12:09 53.75477 6.19689 37117 ft 443 kts 54°
2026-05-07 12:10 53.79047 6.28172 37120 ft 443 kts 54°
2026-05-07 12:10 53.82616 6.36664 37120 ft 443 kts 54°
2026-05-07 12:11 53.86176 6.45190 37121 ft 443 kts 54°
2026-05-07 12:11 53.89720 6.53733 37120 ft 443 kts 55°
2026-05-07 12:12 53.93232 6.62319 37119 ft 443 kts 55°
2026-05-07 12:12 53.96705 6.70881 37117 ft 443 kts 55°
2026-05-07 12:13 54.00198 6.79507 37122 ft 443 kts 55°
2026-05-07 12:13 54.03690 6.88147 37117 ft 443 kts 55°
2026-05-07 12:14 54.07174 6.96808 37119 ft 443 kts 55°
2026-05-07 12:14 54.10652 7.05482 37117 ft 443 kts 55°
2026-05-07 12:15 54.14130 7.14161 37121 ft 443 kts 55°
2026-05-07 12:15 54.17605 7.22859 37123 ft 443 kts 55°
2026-05-07 12:16 54.21070 7.31569 37128 ft 443 kts 56°
2026-05-07 12:16 54.24521 7.40307 37121 ft 443 kts 56°
2026-05-07 12:17 54.27964 7.49042 37124 ft 443 kts 56°
2026-05-07 12:17 54.31384 7.57750 37122 ft 443 kts 56°
2026-05-07 12:18 54.34814 7.66521 37124 ft 443 kts 56°
2026-05-07 12:18 54.38243 7.75304 37128 ft 443 kts 56°
2026-05-07 12:19 54.41666 7.84104 37126 ft 443 kts 56°
2026-05-07 12:19 54.45085 7.92912 37124 ft 443 kts 56°
2026-05-07 12:20 54.48496 8.01747 37125 ft 443 kts 56°
2026-05-07 12:20 54.51894 8.10595 37121 ft 443 kts 56°
2026-05-07 12:21 54.55271 8.19403 37118 ft 443 kts 56°
2026-05-07 12:21 54.58664 8.28277 37117 ft 443 kts 56°
2026-05-07 12:22 54.62049 8.37175 37113 ft 443 kts 56°
2026-05-07 12:22 54.65427 8.46087 37113 ft 444 kts 56°
2026-05-07 12:23 54.68801 8.55014 37112 ft 444 kts 56°
2026-05-07 12:23 54.72153 8.63896 37110 ft 444 kts 56°
2026-05-07 12:24 54.75525 8.72864 37108 ft 444 kts 56°
2026-05-07 12:24 54.78880 8.81838 37107 ft 444 kts 56°
2026-05-07 12:25 54.82233 8.90858 37105 ft 445 kts 57°
2026-05-07 12:25 54.85581 8.99887 37050 ft 446 kts 56°
2026-05-07 12:25 54.87261 9.04411 36785 ft 445 kts 56°
2026-05-07 12:26 54.88928 9.08916 36526 ft 443 kts 56°
2026-05-07 12:26 54.90590 9.13423 36271 ft 442 kts 56°
2026-05-07 12:26 54.92245 9.17912 36017 ft 440 kts 56°
2026-05-07 12:26 54.93866 9.22323 35781 ft 437 kts 56°
2026-05-07 12:27 54.95493 9.26757 35365 ft 433 kts 57°
2026-05-07 12:27 54.97106 9.31161 34907 ft 430 kts 57°
2026-05-07 12:27 54.98707 9.35546 34438 ft 428 kts 57°
2026-05-07 12:27 55.00300 9.39927 33944 ft 426 kts 57°
2026-05-07 12:28 55.01878 9.44274 33456 ft 423 kts 57°
2026-05-07 12:28 55.03444 9.48583 32978 ft 419 kts 57°
2026-05-07 12:28 55.04995 9.52851 32525 ft 415 kts 57°
2026-05-07 12:28 55.06531 9.57091 32067 ft 411 kts 57°
2026-05-07 12:29 55.08047 9.61294 31612 ft 407 kts 57°
2026-05-07 12:29 55.09532 9.65421 31007 ft 408 kts 57°
2026-05-07 12:29 55.10852 9.69870 30029 ft 418 kts 67°
2026-05-07 12:29 55.11781 9.74715 29234 ft 421 kts 72°
2026-05-07 12:30 55.12649 9.79587 28570 ft 419 kts 71°
2026-05-07 12:30 55.13519 9.84434 27970 ft 417 kts 71°
2026-05-07 12:30 55.14387 9.89250 27393 ft 414 kts 72°
2026-05-07 12:30 55.15248 9.94042 26827 ft 412 kts 72°
2026-05-07 12:31 55.16102 9.98807 26274 ft 409 kts 72°
2026-05-07 12:31 55.16946 10.03550 25755 ft 407 kts 72°
2026-05-07 12:31 55.17782 10.08274 25235 ft 405 kts 72°
2026-05-07 12:31 55.18609 10.12977 24740 ft 403 kts 72°
2026-05-07 12:32 55.19419 10.17596 24269 ft 401 kts 72°
2026-05-07 12:32 55.20234 10.22258 23809 ft 400 kts 72°
2026-05-07 12:32 55.21045 10.26907 23299 ft 398 kts 72°
2026-05-07 12:32 55.21851 10.31527 22797 ft 396 kts 72°
2026-05-07 12:33 55.23468 10.40803 21436 ft 400 kts 72°
2026-05-07 12:33 55.24274 10.45449 20904 ft 397 kts 72°
2026-05-07 12:33 55.25073 10.50068 20392 ft 395 kts 72°
2026-05-07 12:34 55.25867 10.54671 19895 ft 392 kts 73°
2026-05-07 12:34 55.26648 10.59230 19392 ft 389 kts 73°
2026-05-07 12:34 55.27422 10.63766 18903 ft 387 kts 73°
2026-05-07 12:34 55.28193 10.68274 18419 ft 384 kts 73°
2026-05-07 12:35 55.28951 10.72685 17829 ft 382 kts 73°
2026-05-07 12:35 55.29724 10.77189 16992 ft 387 kts 73°
2026-05-07 12:35 55.30499 10.81710 16402 ft 385 kts 73°
2026-05-07 12:35 55.31264 10.86196 15871 ft 382 kts 73°
2026-05-07 12:36 55.32017 10.90636 15313 ft 378 kts 73°
2026-05-07 12:36 55.32761 10.95036 14800 ft 374 kts 73°
2026-05-07 12:36 55.33487 10.99332 14657 ft 360 kts 73°
2026-05-07 12:36 55.34183 11.03485 14482 ft 348 kts 73°
2026-05-07 12:37 55.34849 11.07490 14310 ft 337 kts 73°
2026-05-07 12:37 55.35495 11.11390 14140 ft 327 kts 73°
2026-05-07 12:37 55.36122 11.15183 13967 ft 320 kts 73°
2026-05-07 12:37 55.36726 11.18846 13822 ft 311 kts 73°
2026-05-07 12:38 55.37321 11.22471 13574 ft 306 kts 74°
2026-05-07 12:38 55.37705 11.26137 13270 ft 304 kts 83°
2026-05-07 12:38 55.37904 11.29833 12975 ft 303 kts 85°
2026-05-07 12:38 55.38082 11.33505 12674 ft 300 kts 85°
2026-05-07 12:39 55.38255 11.37159 12340 ft 299 kts 85°
2026-05-07 12:39 55.38423 11.40784 12028 ft 296 kts 85°
2026-05-07 12:39 55.38587 11.44383 11716 ft 294 kts 85°
2026-05-07 12:39 55.38748 11.47962 11405 ft 292 kts 85°
2026-05-07 12:40 55.38906 11.51515 11097 ft 290 kts 85°
2026-05-07 12:40 55.39059 11.55043 10801 ft 288 kts 85°
2026-05-07 12:40 55.39207 11.58503 10502 ft 286 kts 85°
2026-05-07 12:40 55.39354 11.61987 10217 ft 285 kts 85°
2026-05-07 12:41 55.39469 11.65446 9923 ft 283 kts 89°
2026-05-07 12:41 55.39349 11.68891 9581 ft 282 kts 94°
2026-05-07 12:41 55.39149 11.72312 9261 ft 280 kts 95°
2026-05-07 12:41 55.38940 11.75707 8922 ft 279 kts 95°
2026-05-07 12:42 55.38729 11.79092 8588 ft 277 kts 95°
2026-05-07 12:42 55.38517 11.82453 8269 ft 276 kts 95°
2026-05-07 12:42 55.38304 11.85805 7955 ft 275 kts 95°
2026-05-07 12:42 55.38088 11.89151 7631 ft 274 kts 95°
2026-05-07 12:43 55.37874 11.92474 7314 ft 273 kts 95°
2026-05-07 12:43 55.37659 11.95793 6997 ft 273 kts 95°
2026-05-07 12:43 55.37444 11.99098 6692 ft 272 kts 95°
2026-05-07 12:43 55.37230 12.02347 6389 ft 270 kts 95°
2026-05-07 12:44 55.37013 12.05620 6068 ft 269 kts 95°
2026-05-07 12:44 55.36796 12.08884 5760 ft 267 kts 95°
2026-05-07 12:44 55.36583 12.12097 5527 ft 263 kts 95°
2026-05-07 12:44 55.36371 12.15258 5290 ft 255 kts 95°
2026-05-07 12:45 55.36167 12.18301 5108 ft 246 kts 95°
2026-05-07 12:45 55.36185 12.21222 4978 ft 234 kts 79°
2026-05-07 12:45 55.36573 12.23940 4842 ft 224 kts 71°
2026-05-07 12:45 55.37195 12.26374 4713 ft 216 kts 52°
2026-05-07 12:46 55.38244 12.28225 4576 ft 213 kts 39°
2026-05-07 12:46 55.39365 12.29922 4448 ft 213 kts 39°
2026-05-07 12:46 55.40478 12.31613 4318 ft 208 kts 39°
2026-05-07 12:46 55.41554 12.33254 4185 ft 201 kts 39°
2026-05-07 12:47 55.42592 12.34837 4052 ft 195 kts 39°
2026-05-07 12:47 55.43600 12.36375 3944 ft 187 kts 39°
2026-05-07 12:47 55.44572 12.37860 3848 ft 184 kts 39°
2026-05-07 12:47 55.45523 12.39314 3643 ft 183 kts 39°
2026-05-07 12:48 55.46483 12.40782 3410 ft 182 kts 39°
2026-05-07 12:48 55.47438 12.42241 3162 ft 181 kts 39°
2026-05-07 12:48 55.48376 12.43676 2898 ft 176 kts 39°
2026-05-07 12:48 55.49290 12.45077 2682 ft 171 kts 39°
2026-05-07 12:49 55.50186 12.46449 2450 ft 170 kts 39°
2026-05-07 12:49 55.51078 12.47818 2220 ft 170 kts 39°
2026-05-07 12:49 55.51968 12.49187 1999 ft 170 kts 39°
2026-05-07 12:49 55.52854 12.50544 1761 ft 167 kts 39°
2026-05-07 12:50 55.53713 12.51863 1519 ft 160 kts 40°
2026-05-07 12:50 55.54536 12.53125 1296 ft 149 kts 40°
2026-05-07 12:50 55.55286 12.54285 1095 ft 140 kts 40°
2026-05-07 12:50 55.56010 12.55400 902 ft 136 kts 39°
2026-05-07 12:51 55.56710 12.56479 735 ft 135 kts 39°
2026-05-07 12:51 55.57415 12.57564 531 ft 134 kts 39°
2026-05-07 12:51 55.58112 12.58640 352 ft 133 kts 40°
2026-05-07 12:51 55.58804 12.59710 167 ft 131 kts 39°
2026-05-07 12:52 55.59487 12.60770 24 ft 127 kts 40°
2026-05-07 12:52 55.60043 12.61624 19 ft 82 kts 41°
2026-05-07 12:52 55.60345 12.62092 18 ft 40 kts 40°
2026-05-07 12:52 55.60532 12.62301 19 ft 23 kts 19°
2026-05-07 12:53 55.60692 12.62366 18 ft 24 kts 11°
2026-05-07 12:53 55.60847 12.62491 17 ft 25 kts 41°
2026-05-07 12:53 55.60982 12.62700 17 ft 26 kts 41°
2026-05-07 12:53 55.61125 12.62920 17 ft 28 kts 41°
2026-05-07 12:54 55.61276 12.63154 17 ft 30 kts 41°
2026-05-07 12:54 55.61435 12.63401 17 ft 31 kts 41°
2026-05-07 12:54 55.61585 12.63631 17 ft 23 kts 41°
2026-05-07 12:54 55.61709 12.63824 17 ft 25 kts 41°
2026-05-07 12:55 55.61845 12.64034 17 ft 27 kts 40°
2026-05-07 12:55 55.61999 12.64180 17 ft 22 kts 25°
2026-05-07 12:55 55.62115 12.64277 19 ft 18 kts 25°
2026-05-07 12:55 55.62220 12.64369 17 ft 16 kts 33°
2026-05-07 12:56 55.62281 12.64543 17 ft 18 kts 66°
2026-05-07 12:56 55.62331 12.64739 17 ft 14 kts 66°
2026-05-07 12:56 55.62348 12.64874 17 ft 11 kts 112°
2026-05-07 12:56 55.62317 12.64958 17 ft 13 kts 123°
2026-05-07 12:57 55.62272 12.65105 19 ft 13 kts 94°
2026-05-07 12:57 55.62309 12.65202 17 ft 9 kts 23°
2026-05-07 12:57 55.62379 12.65204 17 ft 11 kts 359°
2026-05-07 12:57 55.62463 12.65201 17 ft 13 kts 359°
2026-05-07 12:58 55.62556 12.65197 17 ft 12 kts 358°
2026-05-07 12:58 55.62622 12.65194 17 ft 8 kts 358°
2026-05-07 12:58 55.62672 12.65181 18 ft 6 kts 328°
2026-05-07 12:58 55.62690 12.65118 17 ft 4 kts 289°
2026-05-07 12:59 55.62694 12.65094 17 ft 1 kts 289°
2026-05-07 12:59 55.62695 12.65088 17 ft 0 kts 289°